Tracking 32954 objects as of 19-Jan-2026
HD Live streaming from Space Station
objects crossing your sky now

STARLINK-2534

Track STARLINK-2534 now!
10-day predictions
STARLINK-2534 is classified as:


NORAD ID: 48311
Int'l Code: 2021-036AM
Perigee: 553.3 km
Apogee: 555.4 km
Inclination: 53.1 °
Period: 95.6 minutes
Semi major axis: 6925 km
RCS: Unknown
Launch date: April 29, 2021
Source: United States (US)
Launch site: AIR FORCE EASTERN TEST RANGE (AFETR)
Your satellite tracking list
Your tracking list is empty




NASA's NSSDC Master Catalog

Two Line Element Set (TLE):
1 48311U 21036AM  26019.52669340  .00001948  00000-0  14966-3 0  9993
2 48311  53.0567 312.3183 0001515  81.2684 278.8477 15.06397401260767
Source of the keplerian elements: AFSPC